Location: Cosy Dell
(34.2789°N, 117.4537°W)
Time: 21:15:08
(UTC+00:00)

FREGAT/IRIS - Pass Details

Date: 14 July 2020
Orbit: 319 x 325 km, 96.9° (Epoch: 13 August)

Event Time Altitude Azimuth Distance (km) Brightness Sun altitude
Exits shadow 04:00:25 - 189° (S) 1,894 5.8 -11.0°
Reaches altitude 10° 04:01:59 10° 199° (SSW) 1,254 5.0 -11.2°
Maximum altitude 04:04:21 28° 262° (W) 660 4.3 -11.6°
Drops below altitude 10° 04:06:45 10° 325° (NW) 1,266 6.5 -12.0°
Sets 04:08:48 0° 337° (NNW) 2,108 7.4 -12.4°
